Regional Weather Roundup
Issued by NWS

Home | Current Version | Previous Version | Text Only | Print | Product List | Glossary Off
Versions: 1 2 3 4 5 6 7 8 9 10 11 12 13 14 15 16 17 18 19 20 21 22 23 24 25 26 27 28 29 30 31 32 33 34 35 36 37 38 39 40 41 42 43 44 45 46 47 48 49 50

000
ASUS43 KLOT 261104
RWRIL

ILLINOIS REGIONAL WEATHER ROUNDUP
NATIONAL WEATHER SERVICE CHICAGO/ROMEOVILLE IL
600 AM CDT FRI AUG 26 2016

NOTE: "FAIR" INDICATES FEW OR NO CLOUDS BELOW 12,000 FEET WITH NO
SIGNIFICANT WEATHER AND/OR OBSTRUCTIONS TO VISIBILITY.

* THESE STATIONS ARE NOT UNDER NWS QUALITY CONTROL. THEY ALSO MAY NOT
  REPORT WEATHER SUCH AS PRECIPITATION OR FOG.

ILZ001-002-007-009-015-016-024-261200-
NORTHWEST ILLINOIS

CITY           SKY/WX    TMP DP  RH WIND       PRES   REMARKS
MOLINE         FAIR      66  61  84 E5        30.14R
STERLING*      FAIR      65  62  90 NE7       30.14R
SAVANNA*       FAIR      60  60  98 CALM      30.15S
$$

ILZ003-004-008-010-011-017-018-261200-
NORTH CENTRAL ILLINOIS

CITY           SKY/WX    TMP DP  RH WIND       PRES   REMARKS
ROCKFORD       MOCLDY    64  61  90 N3        30.16R
FREEPORT*      FAIR      57  56  97 CALM      30.17S
ROCHELLE*      FAIR      63  61  94 N5        30.15R
$$

ILZ005-006-012>014-019>023-261200-
NORTHEAST ILLINOIS

CITY           SKY/WX    TMP DP  RH WIND       PRES   REMARKS
CHICAGO-OHARE  MOCLDY    67  61  81 N7        30.13R
CHICAGO-MIDWAY MOCLDY    69  61  75 N3        30.13R
AURORA         FAIR      64  61  90 N6        30.13S
LANSING*       FAIR      65  65  99 CALM      30.13S
JOLIET*        FAIR      66  65  99 N3        30.13S
WAUKEGAN       FAIR      64  61  90 NW3       30.13R
DUPAGE AIRPORT FAIR      61  58  90 N7        30.13R
KANKAKEE*      FAIR      68  65  91 CALM      30.13R
WHEELING       FAIR      65  61  87 NW3       30.15R
MORRIS*        FAIR      64  63  95 CALM      30.12R
ROMEOVILLE*    FAIR      64  64 100 CALM      30.13S
NORTHERLY ISL    N/A     68  60  75 NW2         N/A
$$

LMZ740>746-261200-
SOUTHERN LAKE MICHIGAN

STATION/POSITION SKY/WX   TEMP    WIND        PRES    VSBY  WAVE
                          AIR SEA DIR/SP/G                  HT/PER
                          (F)     (DEG/KT/KT) (MB)    (MI)  (FT/S)
SOUTHERN BUOY              72 74  350/ 14/ 16 1018.5          2/ 4
WILMETTE HARBOR            67 68  340/  6/  8   N/A           1/ 2
HARRISON CRIB              70     320/  4/  6   N/A
BURNHAM HARBOR             68     350/  6/  6   N/A
CALUMET HARBOR             68     310/  1/  2 1019.4R
BURNS HARBOR               73      10/  6/  9 1020.3R
MICHIGAN CITY              73     340/  8/  9   N/A
MICHIGAN CITY 6N           74 74  360/  6/  8   N/A           1/ 3
ST. JOSEPH                 74 75  360/  6/  8 1019.2R         1/ 2
$$

ILZ025>027-034>036-040-047-049-050-058-095>099-261200-
WEST-CENTRAL ILLINOIS

CITY           SKY/WX    TMP DP  RH WIND       PRES   REMARKS
QUINCY         CLOUDY    69  69 100 NE8       30.10S
GALESBURG*     FAIR      65  64  96 NE3       30.13S
MACOMB*        CLOUDY    67  66  99 CALM      30.16R
JACKSONVILLE*  MOCLDY    71  69  93 N7        30.11R
PITTSFIELD*    CLOUDY    70  69  99 NE6       30.11R
$$

ILZ028>032-037-038-041>044-048-051>054-059>061-261200-
CENTRAL ILLINOIS

CITY           SKY/WX    TMP DP  RH WIND       PRES   REMARKS
PONTIAC        FAIR      68  67  98 CALM      30.14R
BLOOMINGTON    LGT RAIN  68  67  96 NE7       30.13R
DECATUR        MOCLDY    69  67  93 NE5       30.11R
PEORIA         FAIR      68  68 100 N5        30.13R
LACON*         FAIR      66  65  96 CALM      30.12S
LINCOLN*       FAIR      69  69  99 NE3       30.11S
SPRINGFIELD    FAIR      72  68  87 SE5       30.10F
TAYLORVILLE    FAIR      71  69  96 CALM      30.10S
$$

ILZ033-039-045-046-055>057-062-063-261200-
EAST-CENTRAL ILLINOIS

CITY           SKY/WX    TMP DP  RH WIND       PRES   REMARKS
CHAMPAIGN      FAIR      69  67  93 NE6       30.12R
RANTOUL*       FAIR      69  68  96 NE5       30.13R
MATTOON        FAIR      71  69  93 N10       30.10R
PARIS*         FAIR      73  71  94 CALM      30.12S
$$

ILZ079-100>102-261200-
SOUTHWEST ILLINOIS

CITY           SKY/WX    TMP DP  RH WIND       PRES   REMARKS
ALTON          FAIR      69  68  94 N3        30.09R
BELLEVILLE     MOCLDY    72  72  99 CALM      30.06S
CAHOKIA*       FAIR      74  71  91 SE5       30.07R
SPARTA*        FAIR      75  73  92 CALM      30.09R
$$

ILZ064>066-069>071-074>076-080>082-084>086-088>090-092>094-261200-
SOUTH-CENTRAL ILLINOIS

CITY           SKY/WX    TMP DP  RH WIND       PRES   REMARKS
CARBONDALE     FAIR      70  69  97 S3        30.09R
EFFINGHAM*     FAIR      73  73 100 CALM      30.11R FOG
MARION         FAIR      73  73 100 CALM      30.10R
MT. VERNON     FAIR      70  66  88 CALM      30.10R
CENTRALIA*     FAIR      72  72 100 CALM      30.08S FOG
SALEM*         FAIR      72  71  95 CALM      30.09S FOG
$$

ILZ067-068-072-073-078-083-087-091-261200-
SOUTHEAST ILLINOIS

CITY           SKY/WX    TMP DP  RH WIND       PRES   REMARKS
LAWRENCEVILLE  FAIR      72  71  97 CALM      30.10R
FLORA*         FAIR      71  70  96 CALM      30.10R
FAIRFIELD*     FAIR      71  71  99 CALM      30.09R
HARRISBURG*    FAIR      72  72 100 CALM      30.10R FOG
ROBINSON*      FAIR      67  67 100 CALM      30.11R FOG
CARMI*         FAIR      70  70 100 CALM      30.09R FOG
$$

ABBREVIATIONS USED IN REMARKS
   TC - TEMPERATURE IN CELSIUS
  WCI - WIND CHILL INDEX
   HX - HEAT INDEX
  VSB - VISIBILITY
$$





USA.gov is the U.S. government's official web portal to all federal, state and local government web resources and services.